Wind_Speed
14 17 20 25 23 12 7 10 10 15 9 8 11 12 11 11 13 15 17 20 21 18 15 16 17 18 18 17 17 15 13 13 9 13 14 9 9 8 13 11 12 13 12
15 15 16 16 14 14 13 9 11 12 4 7 12 14 15 13 12 11 12 16 20 20 20 19 20 20 20 18 18 17 16 13 13 10 10 15 13 13 13 12 14 12 11
14 14 14 13 10 8 6 6 5 6 7 11 12 11 13 13 14 12 9 10 13 16 18 20 21 21 18 17 19 18 18 16 14 13 13 15 18 13 11 11 12 11 11
13 13 13 11 10 8 7 7 9 9 9 11 8 5 11 16 12 10 11 11 14 17 17 17 18 17 17 20 20 19 20 19 16 15 13 13 17 15 12 7 7 10 4
14 14 13 12 10 9 9 9 10 11 12 12 12 14 15 9 13 13 16 17 14 16 17 17 16 17 17 18 19 18 22 22 20 19 18 16 16 20 13 9 6 2 3
18 18 17 16 13 12 12 12 13 14 14 16 17 17 15 14 15 20 20 22 21 15 16 18 17 19 20 22 21 18 20 21 20 22 20 18 20 17 14 17 6 4 7
22 23 23 22 20 19 19 19 19 18 19 19 20 21 21 19 20 21 21 20 21 22 18 19 22 20 21 23 23 22 23 22 22 22 22 19 21 19 11 14 11 8 11
30 25 18 17 18 19 23 24 24 24 24 25 25 26 25 25 26 24 23 26 25 25 24 26 26 24 23 24 25 25 26 23 22 24 23 21 22 22 14 16 13 13 13
31 34 30 23 19 19 18 20 21 21 21 25 27 29 29 29 29 27 27 27 29 28 29 28 28 28 26 24 28 27 27 27 24 27 27 25 24 23 20 20 18 17 15
27 34 30 28 25 21 19 19 19 20 20 20 22 25 28 31 33 32 33 32 32 31 30 28 26 24 24 30 32 29 29 30 27 26 23 27 29 23 24 23 21 18 17
34 29 26 25 25 25 22 19 19 21 22 22 22 22 24 25 26 29 32 34 35 35 33 32 30 27 25 24 26 33 35 33 34 35 33 31 30 26 25 23 21 18 18
32 28 28 28 25 22 22 22 24 25 24 22 22 22 23 24 25 26 27 27 31 34 35 35 34 31 29 28 29 29 32 38 37 35 35 32 31 39 28 24 22 19 20
28 28 29 29 27 25 25 24 24 24 25 26 28 27 25 24 24 26 28 28 29 30 29 31 33 33 32 31 32 37 41 39 36 35 33 34 31 26 30 33 22 20 21
31 30 28 28 28 28 28 27 26 25 25 26 27 30 31 32 31 32 33 32 32 29 25 19 22 26 29 30 30 29 22 27 32 32 29 33 35 31 30 32 23 22 19
33 31 31 31 31 31 31 31 30 27 28 28 29 31 33 35 34 35 36 37 38 37 38 33 28 25 25 28 27 22 19 23 26 30 32 35 41 37 38 33 26 25 20
33 33 34 36 35 35 34 33 31 32 32 32 32 32 32 31 34 37 37 38 39 41 42 37 30 29 25 26 28 23 22 20 26 30 32 38 38 36 37 32 31 28 24
39 36 37 40 40 39 37 36 36 31 30 29 30 32 34 33 32 33 37 39 39 40 41 39 35 31 29 27 28 25 21 22 26 28 32 26 29 24 35 38 34 29 21
43 44 42 43 43 40 38 36 35 35 33 27 22 23 25 28 31 30 32 38 38 38 37 38 35 32 31 30 29 27 22 19 19 20 26 29 28 29 36 39 35 29 22
44 45 43 41 37 40 38 37 35 33 33 30 25 23 25 28 27 27 29 25 30 33 31 32 32 30 31 32 29 27 25 19 21 23 22 21 24 31 36 40 34 30 23
40 41 41 41 40 40 38 35 31 34 32 30 29 27 27 32 30 28 27 31 27 27 25 24 25 28 29 31 28 27 27 25 22 25 26 24 27 34 40 40 33 26 23
38 38 36 37 37 37 35 28 32 35 31 31 31 28 28 31 32 31 30 31 28 26 24 23 24 29 28 24 25 25 26 27 25 27 30 30 32 34 42 30 25 24 26
37 34 31 30 29 27 28 29 31 32 30 32 31 30 29 30 30 29 30 30 29 26 24 24 26 26 28 27 26 24 28 29 25 26 29 30 35 33 40 33 30 26 22
31 32 32 30 28 27 28 29 31 31 30 30 30 30 29 30 31 32 30 30 27 26 26 25 26 23 26 29 29 27 28 27 26 26 25 27 34 31 33 31 19 16 22
33 32 30 30 28 26 29 29 28 28 27 26 27 28 29 30 31 31 30 28 27 27 26 26 24 27 24 28 31 27 25 27 27 26 29 28 26 23 25 25 18 15 21
29 29 29 28 28 32 32 29 26 23 22 23 24 25 27 29 31 32 28 25 26 23 24 30 33 30 30 23 30 28 26 27 28 26 28 29 28 27 24 25 22 25 27
29 29 24 25 26 25 24 24 22 21 21 21 23 23 25 26 25 22 23 24 24 23 25 26 25 27 26 31 27 28 28 27 29 22 26 30 29 29 28 23 30 24 23
Wind_Direction
2 360 1 13 20 44 69 114 141 184 196 269 275 273 267 276 284 284 280 268 261 264 275 272 268 267 263 262 260 263 259 267 265 251 274 295 303 284 281 275 279 288 292
5 9 10 14 36 50 51 81 28 30 14 293 276 265 265 270 271 285 288 279 270 268 268 277 267 267 260 259 263 263 256 262 255 251 273 276 279 267 270 279 282 287 289
350 356 9 10 6 358 1 16 27 342 330 297 297 277 286 272 270 275 279 272 269 268 270 272 279 270 258 263 262 265 261 256 253 250 262 263 267 277 273 270 275 274 282
337 342 344 350 352 351 340 324 313 305 295 279 297 303 330 269 278 282 294 286 282 277 269 264 268 269 258 261 264 264 262 258 250 254 254 262 268 277 280 268 264 260 224
323 321 320 318 317 314 311 308 301 301 296 290 286 283 296 287 253 284 267 270 279 261 261 260 254 257 259 258 259 266 265 263 258 259 260 260 262 259 257 252 238 268 336
310 306 303 297 291 281 276 274 279 281 282 286 286 283 275 272 271 278 272 274 259 272 254 254 249 243 250 256 260 265 259 261 260 262 257 255 251 232 225 256 227 248 276
310 306 299 293 289 284 276 272 269 271 273 274 274 275 277 275 267 276 274 279 279 269 270 263 257 251 246 252 255 258 260 256 258 257 252 257 259 262 258 246 231 250 279
329 329 327 315 305 297 291 283 273 271 269 269 271 271 271 273 275 279 279 278 277 277 281 274 274 263 256 252 247 250 256 256 251 253 252 249 253 256 251 239 244 258 285
327 328 325 324 318 314 310 303 299 293 279 269 265 264 266 268 271 273 274 273 276 279 281 281 280 269 271 270 263 259 255 257 251 241 244 238 239 245 246 240 245 258 275
305 318 315 314 317 314 308 303 298 294 293 287 276 272 269 266 269 270 272 274 273 274 274 277 276 277 276 271 263 267 257 263 256 247 247 252 237 230 241 242 247 260 275
304 303 302 304 307 309 308 300 290 284 284 286 286 286 282 279 274 272 272 273 273 273 275 276 275 275 280 289 276 267 265 263 261 252 243 249 248 226 233 238 244 256 271
299 298 301 302 304 301 297 295 294 293 290 282 278 279 280 280 278 277 276 274 276 276 275 273 274 276 276 279 280 279 274 266 260 257 253 238 250 247 227 231 240 253 262
295 297 299 300 299 300 298 296 294 291 288 284 281 283 283 286 284 283 281 282 281 280 277 276 277 274 274 274 279 287 283 252 250 251 242 240 252 252 241 235 234 238 252
305 304 302 301 301 300 301 300 298 293 286 279 275 272 270 272 278 278 281 282 284 287 283 280 282 277 272 273 281 295 277 238 246 247 250 245 248 243 230 224 238 241 248
301 302 303 302 300 300 301 301 300 299 296 289 280 275 271 267 264 267 272 278 279 278 279 281 280 277 273 271 274 285 270 262 262 257 251 251 242 231 238 217 226 238 246
297 298 299 299 299 299 300 297 294 295 294 291 290 286 283 277 267 264 263 265 268 273 277 281 282 280 278 272 266 273 268 263 269 263 258 245 241 242 238 221 218 228 245
295 295 296 296 297 296 295 295 294 292 291 289 288 286 284 284 278 266 261 262 261 264 270 275 276 277 275 271 266 264 268 264 263 271 264 258 250 257 255 221 219 225 242
294 295 294 291 292 293 292 291 291 293 291 288 283 281 283 283 282 283 274 273 275 271 269 271 271 269 268 265 263 259 266 255 258 263 271 261 260 255 236 215 215 222 235
293 290 289 291 287 288 288 287 286 284 284 286 282 277 285 285 290 286 287 292 281 282 282 273 268 261 260 257 259 251 256 259 246 256 273 262 253 249 226 207 211 219 235
296 292 289 288 284 284 285 284 285 288 277 275 279 281 280 282 280 283 279 286 284 280 282 272 264 257 249 253 257 249 247 253 252 251 254 259 246 217 204 212 211 213 220
300 297 293 289 287 284 284 279 280 276 276 274 277 282 283 284 282 283 279 282 288 277 275 265 261 255 250 245 246 246 245 249 249 247 244 244 231 225 214 219 199 208 211
306 306 303 298 292 285 281 280 274 277 274 273 276 280 280 279 283 283 281 279 281 279 269 265 255 251 250 241 240 240 244 245 245 238 234 236 231 228 219 239 220 213 217
310 305 302 297 294 288 287 283 278 276 274 272 276 280 282 281 284 284 283 283 274 265 269 253 264 256 262 240 235 238 243 245 239 234 237 225 228 235 241 227 217 228 225
310 303 304 289 288 282 289 291 287 280 277 275 276 279 282 283 284 286 280 279 269 257 259 252 263 259 251 248 236 236 236 243 239 231 224 225 231 233 231 209 221 219 193
329 321 309 301 291 288 282 283 285 282 277 277 277 280 284 289 288 288 276 272 261 256 255 251 258 253 245 242 235 231 232 240 239 231 223 223 224 229 239 233 220 201 198
325 329 320 309 301 295 289 283 283 281 275 274 276 281 292 296 295 283 272 268 264 254 245 242 256 242 236 238 237 229 232 235 236 232 232 225 219 225 213 195 200 203 207
Height
3169 3165 3160 3153 3146 3138 3137 3140 3149 3154 3157 3157 3160 3161 3163 3164 3163 3164 3165 3166 3168 3170 3170 3170 3171 3172 3173 3173 3174 3175 3176 3176 3177 3176 3174 3175 3177 3179 3180 3180 3179 3179 3178
3168 3165 3162 3157 3154 3152 3151 3152 3151 3153 3153 3156 3160 3159 3159 3159 3161 3159 3161 3161 3162 3165 3167 3166 3166 3167 3168 3169 3169 3171 3172 3172 3173 3173 3172 3173 3175 3176 3176 3175 3175 3174 3174
3168 3166 3163 3160 3158 3157 3156 3154 3155 3156 3157 3158 3158 3157 3157 3156 3155 3155 3156 3155 3156 3158 3159 3160 3163 3162 3163 3164 3166 3167 3168 3169 3170 3169 3171 3171 3170 3171 3171 3171 3170 3171 3171
3167 3165 3163 3162 3160 3158 3156 3155 3154 3155 3156 3155 3154 3153 3152 3152 3153 3152 3150 3151 3151 3151 3152 3154 3156 3158 3159 3160 3162 3163 3163 3164 3165 3164 3165 3166 3166 3166 3165 3167 3167 3167 3168
3167 3164 3163 3161 3160 3158 3155 3155 3154 3153 3153 3152 3151 3151 3149 3149 3149 3147 3146 3147 3147 3145 3147 3148 3149 3152 3154 3154 3157 3158 3159 3160 3160 3160 3161 3160 3159 3160 3162 3160 3160 3163 3165
3164 3162 3159 3157 3156 3155 3153 3152 3151 3151 3151 3149 3148 3146 3145 3146 3146 3145 3143 3141 3142 3141 3141 3142 3143 3144 3146 3148 3149 3151 3152 3154 3154 3155 3156 3155 3155 3160 3160 3162 3158 3159 3162
3159 3156 3154 3151 3150 3148 3148 3148 3147 3146 3146 3145 3144 3142 3141 3140 3140 3139 3138 3138 3138 3138 3138 3139 3140 3139 3140 3141 3141 3144 3146 3148 3149 3150 3151 3150 3151 3154 3154 3160 3154 3156 3158
3152 3150 3148 3146 3144 3142 3140 3139 3140 3139 3138 3138 3137 3136 3135 3134 3134 3134 3135 3134 3134 3134 3134 3135 3135 3136 3135 3135 3135 3137 3139 3139 3142 3143 3145 3146 3146 3147 3150 3150 3151 3152 3153
3147 3145 3143 3142 3140 3138 3136 3133 3131 3131 3131 3130 3130 3129 3129 3129 3129 3129 3129 3128 3128 3128 3128 3128 3129 3130 3131 3130 3129 3130 3130 3131 3128 3134 3136 3138 3140 3142 3143 3145 3147 3148 3148
3145 3143 3140 3137 3135 3134 3132 3130 3128 3126 3124 3123 3123 3122 3122 3123 3122 3123 3121 3121 3121 3121 3121 3122 3122 3122 3123 3122 3122 3122 3122 3123 3124 3127 3128 3130 3130 3133 3138 3140 3142 3143 3142
3141 3139 3137 3134 3131 3128 3126 3125 3123 3122 3119 3118 3117 3116 3115 3115 3115 3114 3114 3112 3112 3112 3113 3114 3114 3115 3115 3115 3114 3113 3115 3117 3116 3116 3118 3122 3125 3124 3130 3133 3135 3136 3136
3133 3131 3129 3127 3125 3123 3121 3119 3117 3115 3114 3113 3112 3111 3110 3108 3107 3106 3105 3105 3104 3103 3104 3104 3105 3106 3106 3106 3106 3107 3107 3107 3107 3107 3108 3110 3114 3116 3120 3125 3128 3129 3129
3125 3123 3121 3119 3117 3116 3113 3112 3111 3109 3107 3105 3103 3103 3102 3101 3100 3098 3096 3096 3095 3094 3094 3095 3095 3097 3097 3098 3097 3095 3092 3092 3097 3098 3100 3102 3106 3108 3112 3116 3120 3123 3123
3117 3115 3113 3111 3108 3107 3105 3104 3103 3101 3099 3098 3097 3095 3094 3092 3092 3089 3088 3087 3087 3085 3085 3086 3087 3086 3087 3087 3087 3084 3080 3083 3088 3091 3093 3095 3097 3099 3101 3106 3111 3114 3116
3110 3108 3105 3103 3101 3098 3096 3094 3093 3092 3089 3088 3087 3085 3084 3083 3084 3082 3081 3080 3078 3076 3076 3077 3077 3078 3078 3077 3078 3077 3076 3079 3081 3084 3085 3086 3086 3089 3093 3098 3102 3106 3109
3102 3100 3097 3094 3092 3089 3086 3084 3084 3081 3080 3076 3074 3073 3071 3070 3070 3070 3071 3070 3069 3067 3064 3065 3067 3067 3068 3069 3069 3070 3070 3072 3074 3075 3075 3067 3074 3079 3084 3089 3095 3100 3102
3092 3091 3088 3084 3081 3079 3076 3073 3070 3072 3069 3068 3066 3062 3060 3059 3057 3056 3056 3056 3056 3057 3055 3056 3057 3058 3058 3059 3060 3062 3062 3062 3064 3066 3068 3067 3069 3072 3077 3079 3087 3091 3093
3082 3079 3077 3073 3069 3067 3065 3063 3060 3058 3057 3058 3057 3055 3053 3050 3047 3046 3046 3045 3044 3045 3045 3045 3046 3048 3048 3050 3051 3053 3054 3054 3055 3058 3059 3059 3062 3065 3067 3073 3079 3083 3085
3070 3066 3063 3060 3058 3056 3054 3052 3050 3048 3047 3046 3047 3047 3044 3041 3039 3038 3037 3035 3035 3033 3034 3034 3036 3037 3037 3039 3042 3044 3046 3047 3048 3049 3050 3050 3052 3054 3059 3066 3071 3077 3079
3057 3054 3051 3049 3046 3044 3042 3041 3039 3039 3036 3036 3036 3037 3037 3032 3031 3030 3028 3028 3026 3025 3024 3023 3024 3025 3027 3029 3032 3035 3037 3039 3040 3040 3042 3043 3045 3047 3051 3056 3061 3067 3072
3046 3042 3039 3036 3034 3032 3031 3029 3028 3027 3026 3026 3026 3027 3026 3023 3021 3020 3019 3018 3017 3017 3017 3015 3015 3016 3017 3020 3023 3025 3028 3030 3032 3033 3035 3038 3041 3044 3046 3048 3053 3059 3064
3035 3031 3028 3025 3023 3022 3021 3019 3018 3017 3016 3016 3016 3016 3016 3014 3012 3011 3009 3009 3009 3008 3007 3006 3006 3007 3009 3011 3015 3017 3019 3021 3024 3025 3027 3030 3034 3038 3041 3043 3045 3050 3055
3028 3024 3021 3018 3015 3013 3012 3010 3008 3007 3007 3007 3007 3006 3005 3004 3002 3001 2999 2999 2998 2998 2998 2998 2998 2998 3001 3003 3006 3008 3010 3012 3016 3018 3020 3023 3027 3031 3033 3037 3040 3045 3047
3021 3016 3012 3009 3006 3004 3003 3001 2999 2998 2998 2998 2998 2997 2995 2994 2992 2991 2990 2989 2988 2988 2988 2989 2988 2989 2992 2993 2997 2999 3003 3004 3008 3011 3013 3017 3022 3026 3028 3031 3036 3040 3042
3014 3008 3003 2999 2997 2995 2993 2992 2991 2990 2990 2990 2989 2988 2987 2985 2982 2980 2979 2978 2978 2979 2980 2980 2980 2982 2983 2985 2987 2992 2995 2997 3000 3004 3007 3011 3015 3020 3022 3025 3029 3035 3038
3008 3002 2997 2993 2990 2987 2985 2984 2983 2983 2982 2982 2981 2980 2978 2976 2973 2971 2971 2970 2970 2971 2971 2971 2972 2973 2976 2976 2980 2984 2987 2990 2992 2997 2999 3004 3008 3012 3015 3019 3024 3028 3033